This demonstration page uses our WeatherBlox Daily Observations layout. Learn more.

41.55636, -103.73856

Hourly Observations for July 11, 2016

Temp ( °F °C ) Dew Point ( °F °C ) Humidity (%) Winds ( mph kmh ) Pressure ( in mb ) Visibility ( mi km ) Precip ( " mm )
12:53 am 00:53 Clear 69 20.6 57 13.9 66 66 E 7 11 29.4 996 10 16.0934 0 0
1:53 am 01:53 Clear 66 18.9 53 11.7 63 63 NNW 16 26 29.51 999 10 16.0934 0 0
2:53 am 02:53 Clear 63 17.2 51 10.6 65 65 NW 10 17 29.56 1001 10 16.0934 0 0
3:53 am 03:53 Clear 62 16.7 49 9.4 62 62 WNW 13 20 29.6 1002 10 16.0934 0 0
4:53 am 04:53 Clear 61 16.1 48 8.9 63 63 WNW 10 17 29.64 1004 10 16.0934 0 0
5:53 am 05:53 Sunny 60 15.6 48 8.9 65 65 WNW 13 20 29.67 1005 10 16.0934 0 0
6:53 am 06:53 Sunny 62 16.7 49 9.4 62 62 WNW 12 19 29.69 1005 10 16.0934 0 0
7:53 am 07:53 Sunny 66 18.9 49 9.4 54 54 W 16 26 29.71 1006 10 16.0934 0 0
8:53 am 08:53 Sunny 71 21.7 50 10 47 47 WNW 14 22 29.72 1006 10 16.0934 0 0
9:53 am 09:53 Sunny 76 24.4 49 9.4 39 39 WNW 14 22 29.7 1006 10 16.0934 0 0
10:53 am 10:53 Sunny 81 27.2 27 -2.8 14 14 W 18 30 29.69 1005 10 16.0934 0 0
11:53 am 11:53 Sunny 81 27.2 23 -5 12 12 WNW 23 37 29.68 1005 10 16.0934 0 0
12:53 pm 12:53 Sunny 82 27.8 25 -3.9 12 12 WNW 29 46 29.67 1005 10 16.0934 0 0
1:53 pm 13:53 Sunny 84 28.9 23 -5 10 10 WNW 28 44 29.68 1005 10 16.0934 0 0
2:53 pm 14:53 Sunny 86 30 12 -11.1 6 6 WNW 26 43 29.67 1005 10 16.0934 0 0
3:53 pm 15:53 Sunny 85 29.4 12 -11.1 6 6 WNW 31 50 29.67 1005 10 16.0934 0 0
4:53 pm 16:53 Sunny 85 29.4 13 -10.6 7 7 WNW 31 50 29.69 1006 10 16.0934 0 0
5:53 pm 17:53 Sunny 83 28.3 23 -5 11 11 WNW 26 43 29.72 1006 10 16.0934 0 0
6:53 pm 18:53 Sunny 81 27.2 26 -3.3 13 13 WNW 16 26 29.74 1007 10 16.0934 0 0
7:53 pm 19:53 Sunny 77 25 29 -1.7 17 17 WNW 13 20 29.76 1008 10 16.0934 0 0
8:53 pm 20:53 Clear 67 19.4 35 1.7 31 31 NNW 12 19 29.78 1009 10 16.0934 0 0
9:53 pm 21:53 Clear 65 18.3 32 0 29 29 N 12 19 29.8 1009 10 16.0934 0 0
10:53 pm 22:53 Clear 64 17.8 32 0 30 30 N 10 17 29.79 1009 10 16.0934 0 0
11:53 pm 23:53 Clear 58 14.4 34 1.1 41 41 SSE 8 13 29.85 1011 10 16.0934 0 0

Powered by AerisWeather